Year,Month,Day,Hour,Minute,Value (Times are PST for temperature in C)
2007,08,29,00,00,14.40
2007,08,29,00,01,14.30
2007,08,29,00,02,14.30
2007,08,29,00,03,14.30
2007,08,29,00,04,14.30
2007,08,29,00,05,14.30
2007,08,29,00,06,14.30
2007,08,29,00,07,14.30
2007,08,29,00,08,14.30
2007,08,29,00,09,14.30
2007,08,29,00,10,14.30
2007,08,29,00,11,14.30
2007,08,29,00,12,14.20
2007,08,29,00,13,14.20
2007,08,29,00,14,14.20
2007,08,29,00,15,14.20
2007,08,29,00,16,14.20
2007,08,29,00,17,14.20
2007,08,29,00,18,14.20
2007,08,29,00,19,14.20
2007,08,29,00,20,14.10
2007,08,29,00,21,14.10
2007,08,29,00,22,14.10
2007,08,29,00,23,14.10
2007,08,29,00,24,14.10
2007,08,29,00,25,14.10
2007,08,29,00,26,14.10
2007,08,29,00,27,14.00
2007,08,29,00,28,14.00
2007,08,29,00,29,14.00
2007,08,29,00,30,14.00
2007,08,29,00,31,14.00
2007,08,29,00,32,13.90
2007,08,29,00,33,13.90
2007,08,29,00,34,13.90
2007,08,29,00,35,13.90
2007,08,29,00,36,13.90
2007,08,29,00,37,13.90
2007,08,29,00,38,13.80
2007,08,29,00,39,13.80
2007,08,29,00,40,13.80
2007,08,29,00,41,13.80
2007,08,29,00,42,13.80
2007,08,29,00,43,13.80
2007,08,29,00,44,13.80
2007,08,29,00,45,13.80
2007,08,29,00,46,13.80
2007,08,29,00,47,13.80
2007,08,29,00,48,13.80
2007,08,29,00,49,13.80
2007,08,29,00,50,13.80
2007,08,29,00,51,13.80
2007,08,29,00,52,13.80
2007,08,29,00,53,13.80
2007,08,29,00,54,13.80
2007,08,29,00,55,13.80
2007,08,29,00,56,13.80
2007,08,29,00,57,13.70
2007,08,29,00,58,13.70
2007,08,29,00,59,13.70
2007,08,29,01,00,13.70
2007,08,29,01,01,13.70
2007,08,29,01,02,13.70
2007,08,29,01,03,13.70
2007,08,29,01,04,13.70
2007,08,29,01,05,13.70
2007,08,29,01,06,13.80
2007,08,29,01,07,13.80
2007,08,29,01,08,13.80
2007,08,29,01,09,13.80
2007,08,29,01,10,13.80
2007,08,29,01,11,13.80
2007,08,29,01,12,13.80
2007,08,29,01,13,13.70
2007,08,29,01,14,13.70
2007,08,29,01,15,13.70
2007,08,29,01,16,13.70
2007,08,29,01,17,13.70
2007,08,29,01,18,13.70
2007,08,29,01,19,13.70
2007,08,29,01,20,13.70
2007,08,29,01,21,13.70
2007,08,29,01,22,13.70
2007,08,29,01,23,13.70
2007,08,29,01,24,13.70
2007,08,29,01,25,13.70
2007,08,29,01,26,13.70
2007,08,29,01,27,13.70
2007,08,29,01,28,13.70
2007,08,29,01,29,13.60
2007,08,29,01,30,13.60
2007,08,29,01,31,13.60
2007,08,29,01,32,13.60
2007,08,29,01,33,13.60
2007,08,29,01,34,13.50
2007,08,29,01,35,13.50
2007,08,29,01,36,13.50
2007,08,29,01,37,13.50
2007,08,29,01,38,13.50
2007,08,29,01,39,13.40
2007,08,29,01,40,13.40
2007,08,29,01,41,13.40
2007,08,29,01,42,13.40
2007,08,29,01,43,13.40
2007,08,29,01,44,13.40
2007,08,29,01,45,13.40
2007,08,29,01,46,13.40
2007,08,29,01,47,13.40
2007,08,29,01,48,13.40
2007,08,29,01,49,13.40
2007,08,29,01,50,13.40
2007,08,29,01,51,13.40
2007,08,29,01,52,13.40
2007,08,29,01,53,13.40
2007,08,29,01,54,13.40
2007,08,29,01,55,13.40
2007,08,29,01,56,13.40
2007,08,29,01,57,13.30
2007,08,29,01,58,13.30
2007,08,29,01,59,13.30
2007,08,29,02,00,13.30
2007,08,29,02,01,13.40
2007,08,29,02,02,13.40
2007,08,29,02,03,13.40
2007,08,29,02,04,13.40
2007,08,29,02,05,13.40
2007,08,29,02,06,13.40
2007,08,29,02,07,13.40
2007,08,29,02,08,13.40
2007,08,29,02,09,13.40
2007,08,29,02,10,13.40
2007,08,29,02,11,13.40
2007,08,29,02,12,13.40
2007,08,29,02,13,13.40
2007,08,29,02,14,13.40
2007,08,29,02,15,13.40
2007,08,29,02,16,13.40
2007,08,29,02,17,13.40
2007,08,29,02,18,13.40
2007,08,29,02,19,13.40
2007,08,29,02,20,13.40
2007,08,29,02,21,13.40
2007,08,29,02,22,13.40
2007,08,29,02,23,13.40
2007,08,29,02,24,13.40
2007,08,29,02,25,13.40
2007,08,29,02,26,13.30
2007,08,29,02,27,13.30
2007,08,29,02,28,13.30
2007,08,29,02,29,13.30
2007,08,29,02,30,13.30
2007,08,29,02,31,13.30
2007,08,29,02,32,13.30
2007,08,29,02,33,13.30
2007,08,29,02,34,13.30
2007,08,29,02,35,13.30
2007,08,29,02,36,13.20
2007,08,29,02,37,13.20
2007,08,29,02,38,13.20
2007,08,29,02,39,13.20
2007,08,29,02,40,13.20
2007,08,29,02,41,13.20
2007,08,29,02,42,13.20
2007,08,29,02,43,13.20
2007,08,29,02,44,13.20
2007,08,29,02,45,13.20
2007,08,29,02,46,13.20
2007,08,29,02,47,13.20
2007,08,29,02,48,13.20
2007,08,29,02,49,13.20
2007,08,29,02,50,13.10
2007,08,29,02,51,13.10
2007,08,29,02,52,13.10
2007,08,29,02,53,13.10
2007,08,29,02,54,13.10
2007,08,29,02,55,13.00
2007,08,29,02,56,13.00
2007,08,29,02,57,13.00
2007,08,29,02,58,13.00
2007,08,29,02,59,12.90
2007,08,29,03,00,12.90
2007,08,29,03,01,12.90
2007,08,29,03,02,12.90
2007,08,29,03,03,12.80
2007,08,29,03,04,12.80
2007,08,29,03,05,12.80
2007,08,29,03,06,12.80
2007,08,29,03,07,12.80
2007,08,29,03,08,12.80
2007,08,29,03,09,12.70
2007,08,29,03,10,12.70
2007,08,29,03,11,12.70
2007,08,29,03,12,12.70
2007,08,29,03,13,12.70
2007,08,29,03,14,12.70
2007,08,29,03,15,12.70
2007,08,29,03,16,12.60
2007,08,29,03,17,12.60
2007,08,29,03,18,12.60
2007,08,29,03,19,12.60
2007,08,29,03,20,12.60
2007,08,29,03,21,12.60
2007,08,29,03,22,12.60
2007,08,29,03,23,12.60
2007,08,29,03,24,12.60
2007,08,29,03,25,12.60
2007,08,29,03,26,12.60
2007,08,29,03,27,12.50
2007,08,29,03,28,12.50
2007,08,29,03,29,12.50
2007,08,29,03,30,12.50
2007,08,29,03,31,12.50
2007,08,29,03,32,12.50
2007,08,29,03,33,12.50
2007,08,29,03,34,12.50
2007,08,29,03,35,12.50
2007,08,29,03,36,12.50
2007,08,29,03,37,12.50
2007,08,29,03,38,12.50
2007,08,29,03,39,12.40
2007,08,29,03,40,12.40
2007,08,29,03,41,12.40
2007,08,29,03,42,12.40
2007,08,29,03,43,12.50
2007,08,29,03,44,12.50
2007,08,29,03,45,12.50
2007,08,29,03,46,12.50
2007,08,29,03,47,12.50
2007,08,29,03,48,12.50
2007,08,29,03,49,12.50
2007,08,29,03,50,12.50
2007,08,29,03,51,12.50
2007,08,29,03,52,12.50
2007,08,29,03,53,12.50
2007,08,29,03,54,12.50
2007,08,29,03,55,12.50
2007,08,29,03,56,12.50
2007,08,29,03,57,12.50
2007,08,29,03,58,12.40
2007,08,29,03,59,12.40
2007,08,29,04,00,12.40
2007,08,29,04,01,12.40
2007,08,29,04,02,12.40
2007,08,29,04,03,12.40
2007,08,29,04,04,12.40
2007,08,29,04,05,12.40
2007,08,29,04,06,12.40
2007,08,29,04,07,12.40
2007,08,29,04,08,12.40
2007,08,29,04,09,12.40
2007,08,29,04,10,12.40
2007,08,29,04,11,12.40
2007,08,29,04,12,12.40
2007,08,29,04,13,12.40
2007,08,29,04,14,12.40
2007,08,29,04,15,12.40
2007,08,29,04,16,12.40
2007,08,29,04,17,12.40
2007,08,29,04,18,12.40
2007,08,29,04,19,12.40
2007,08,29,04,20,12.40
2007,08,29,04,21,12.40
2007,08,29,04,22,12.40
2007,08,29,04,23,12.40
2007,08,29,04,24,12.30
2007,08,29,04,25,12.30
2007,08,29,04,26,12.30
2007,08,29,04,27,12.30
2007,08,29,04,28,12.30
2007,08,29,04,29,12.30
2007,08,29,04,30,12.20
2007,08,29,04,31,12.20
2007,08,29,04,32,12.20
2007,08,29,04,33,12.20
2007,08,29,04,34,12.20
2007,08,29,04,35,12.20
2007,08,29,04,36,12.20
2007,08,29,04,37,12.20
2007,08,29,04,38,12.20
2007,08,29,04,39,12.20
2007,08,29,04,40,12.20
2007,08,29,04,41,12.20
2007,08,29,04,42,12.10
2007,08,29,04,43,12.10
2007,08,29,04,44,12.10
2007,08,29,04,45,12.10
2007,08,29,04,46,12.10
2007,08,29,04,47,12.10
2007,08,29,04,48,12.10
2007,08,29,04,49,12.10
2007,08,29,04,50,12.00
2007,08,29,04,51,12.10
2007,08,29,04,52,12.00
2007,08,29,04,53,12.00
2007,08,29,04,54,12.10
2007,08,29,04,55,12.10
2007,08,29,04,56,12.10
2007,08,29,04,57,12.10
2007,08,29,04,58,12.10
2007,08,29,04,59,12.10
2007,08,29,05,00,12.10
2007,08,29,05,01,12.10
2007,08,29,05,02,12.10
2007,08,29,05,03,12.10
2007,08,29,05,04,12.10
2007,08,29,05,05,12.20
2007,08,29,05,06,12.20
2007,08,29,05,07,12.20
2007,08,29,05,08,12.20
2007,08,29,05,09,12.20
2007,08,29,05,10,12.20
2007,08,29,05,11,12.20
2007,08,29,05,12,12.20
2007,08,29,05,13,12.20
2007,08,29,05,14,12.20
2007,08,29,05,15,12.20
2007,08,29,05,16,12.20
2007,08,29,05,17,12.20
2007,08,29,05,18,12.20
2007,08,29,05,19,12.20
2007,08,29,05,20,12.20
2007,08,29,05,21,12.20
2007,08,29,05,22,12.20
2007,08,29,05,23,12.20
2007,08,29,05,24,12.20
2007,08,29,05,25,12.20
2007,08,29,05,26,12.20
2007,08,29,05,27,12.20
2007,08,29,05,28,12.10
2007,08,29,05,29,12.10
2007,08,29,05,30,12.10
2007,08,29,05,31,12.10
2007,08,29,05,32,12.10
2007,08,29,05,33,12.10
2007,08,29,05,34,12.10
2007,08,29,05,35,12.10
2007,08,29,05,36,12.10
2007,08,29,05,37,12.10
2007,08,29,05,38,12.10
2007,08,29,05,39,12.10
2007,08,29,05,40,12.10
2007,08,29,05,41,12.10
2007,08,29,05,42,12.10
2007,08,29,05,43,12.10
2007,08,29,05,44,12.10
2007,08,29,05,45,12.10
2007,08,29,05,46,12.10
2007,08,29,05,47,12.10
2007,08,29,05,48,12.10
2007,08,29,05,49,12.10
2007,08,29,05,50,12.10
2007,08,29,05,51,12.10
2007,08,29,05,52,12.10
2007,08,29,05,53,12.10
2007,08,29,05,54,12.10
2007,08,29,05,55,12.00
2007,08,29,05,56,12.00
2007,08,29,05,57,12.00
2007,08,29,05,58,12.00
2007,08,29,05,59,11.90
2007,08,29,06,00,11.90
2007,08,29,06,01,11.90
2007,08,29,06,02,11.90
2007,08,29,06,03,11.90
2007,08,29,06,04,11.90
2007,08,29,06,05,11.90
2007,08,29,06,06,11.90
2007,08,29,06,07,11.90
2007,08,29,06,08,11.90
2007,08,29,06,09,11.90
2007,08,29,06,10,11.90
2007,08,29,06,11,11.90
2007,08,29,06,12,11.80
2007,08,29,06,13,11.80
2007,08,29,06,14,11.80
2007,08,29,06,15,11.80
2007,08,29,06,16,11.80
2007,08,29,06,17,11.80
2007,08,29,06,18,11.80
2007,08,29,06,19,11.80
2007,08,29,06,20,11.80
2007,08,29,06,21,11.80
2007,08,29,06,22,11.80
2007,08,29,06,23,11.80
2007,08,29,06,24,11.80
2007,08,29,06,25,11.80
2007,08,29,06,26,11.80
2007,08,29,06,27,11.80
2007,08,29,06,28,11.80
2007,08,29,06,29,11.80
2007,08,29,06,30,11.80
2007,08,29,06,31,11.80
2007,08,29,06,32,11.80
2007,08,29,06,33,11.70
2007,08,29,06,34,11.70
2007,08,29,06,35,11.70
2007,08,29,06,36,11.70
2007,08,29,06,37,11.70
2007,08,29,06,38,11.70
2007,08,29,06,39,11.70
2007,08,29,06,40,11.70
2007,08,29,06,41,11.70
2007,08,29,06,42,11.60
2007,08,29,06,43,11.60
2007,08,29,06,44,11.60
2007,08,29,06,45,11.60
2007,08,29,06,46,11.60
2007,08,29,06,47,11.60
2007,08,29,06,48,11.60
2007,08,29,06,49,11.60
2007,08,29,06,50,11.60
2007,08,29,06,51,11.70
2007,08,29,06,52,11.70
2007,08,29,06,53,11.70
2007,08,29,06,54,11.70
2007,08,29,06,55,11.70
2007,08,29,06,56,11.70
2007,08,29,06,57,11.70
2007,08,29,06,58,11.70
2007,08,29,06,59,11.70
2007,08,29,07,00,11.70
2007,08,29,07,01,11.70
2007,08,29,07,02,11.60
2007,08,29,07,03,11.60
2007,08,29,07,04,11.60
2007,08,29,07,05,11.60
2007,08,29,07,06,11.60
2007,08,29,07,07,11.60
2007,08,29,07,08,11.60
2007,08,29,07,09,11.60
2007,08,29,07,10,11.60
2007,08,29,07,11,11.70
2007,08,29,07,12,11.70
2007,08,29,07,13,11.70
2007,08,29,07,14,11.80
2007,08,29,07,15,11.80
2007,08,29,07,16,11.80
2007,08,29,07,17,11.80
2007,08,29,07,18,11.90
2007,08,29,07,19,11.90
2007,08,29,07,20,11.90
2007,08,29,07,21,11.90
2007,08,29,07,22,11.90
2007,08,29,07,23,12.00
2007,08,29,07,24,12.00
2007,08,29,07,25,12.00
2007,08,29,07,26,12.00
2007,08,29,07,27,12.00
2007,08,29,07,28,12.00
2007,08,29,07,29,12.00
2007,08,29,07,30,12.00
2007,08,29,07,31,12.00
2007,08,29,07,32,12.00
2007,08,29,07,33,12.10
2007,08,29,07,34,12.10
2007,08,29,07,35,12.10
2007,08,29,07,36,12.10
2007,08,29,07,37,12.10
2007,08,29,07,38,12.10
2007,08,29,07,39,12.20
2007,08,29,07,40,12.20
2007,08,29,07,41,12.20
2007,08,29,07,42,12.20
2007,08,29,07,43,12.30
2007,08,29,07,44,12.30
2007,08,29,07,45,12.30
2007,08,29,07,46,12.40
2007,08,29,07,47,12.40
2007,08,29,07,48,12.50
2007,08,29,07,49,12.50
2007,08,29,07,50,12.60
2007,08,29,07,51,12.60
2007,08,29,07,52,12.70
2007,08,29,07,53,12.70
2007,08,29,07,54,12.80
2007,08,29,07,55,12.80
2007,08,29,07,56,12.90
2007,08,29,07,57,12.90
2007,08,29,07,58,13.00
2007,08,29,07,59,13.00
2007,08,29,08,00,13.00
2007,08,29,08,01,13.10
2007,08,29,08,02,13.10
2007,08,29,08,03,13.20
2007,08,29,08,04,13.20
2007,08,29,08,05,13.20
2007,08,29,08,06,13.20
2007,08,29,08,07,13.30
2007,08,29,08,08,13.30
2007,08,29,08,09,13.30
2007,08,29,08,10,13.40
2007,08,29,08,11,13.40
2007,08,29,08,12,13.40
2007,08,29,08,13,13.50
2007,08,29,08,14,13.50
2007,08,29,08,15,13.50
2007,08,29,08,16,13.60
2007,08,29,08,17,13.60
2007,08,29,08,18,13.70
2007,08,29,08,19,13.70
2007,08,29,08,20,13.70
2007,08,29,08,21,13.80
2007,08,29,08,22,13.80
2007,08,29,08,23,13.90
2007,08,29,08,24,14.00
2007,08,29,08,25,14.10
2007,08,29,08,26,14.10
2007,08,29,08,27,14.20
2007,08,29,08,28,14.30
2007,08,29,08,29,14.30
2007,08,29,08,30,14.30
2007,08,29,08,31,14.40
2007,08,29,08,32,14.40
2007,08,29,08,33,14.50
2007,08,29,08,34,14.60
2007,08,29,08,35,14.60
2007,08,29,08,36,14.70
2007,08,29,08,37,14.80
2007,08,29,08,38,15.00
2007,08,29,08,39,15.00
2007,08,29,08,40,15.00
2007,08,29,08,41,15.00
2007,08,29,08,42,15.20
2007,08,29,08,43,15.30
2007,08,29,08,44,15.40
2007,08,29,08,45,15.50
2007,08,29,08,46,15.60
2007,08,29,08,47,15.60
2007,08,29,08,48,15.70
2007,08,29,08,49,15.80
2007,08,29,08,50,15.80
2007,08,29,08,51,15.90
2007,08,29,08,52,15.90
2007,08,29,08,53,16.00
2007,08,29,08,54,16.00
2007,08,29,08,55,16.10
2007,08,29,08,56,16.20
2007,08,29,08,57,16.20
2007,08,29,08,58,16.30
2007,08,29,08,59,16.40
2007,08,29,09,00,16.40
2007,08,29,09,01,16.50
2007,08,29,09,02,16.60
2007,08,29,09,03,16.60
2007,08,29,09,04,16.70
2007,08,29,09,05,16.70
2007,08,29,09,06,16.80
2007,08,29,09,07,16.80
2007,08,29,09,08,16.90
2007,08,29,09,09,17.10
2007,08,29,09,10,17.20
2007,08,29,09,11,17.20
2007,08,29,09,12,17.30
2007,08,29,09,13,17.30
2007,08,29,09,14,17.40
2007,08,29,09,15,17.50
2007,08,29,09,16,17.60
2007,08,29,09,17,17.70
2007,08,29,09,18,17.80
2007,08,29,09,19,17.90
2007,08,29,09,20,18.00
2007,08,29,09,21,18.20
2007,08,29,09,22,18.40
2007,08,29,09,23,18.50
2007,08,29,09,24,18.70
2007,08,29,09,25,18.80
2007,08,29,09,26,19.00
2007,08,29,09,27,19.10
2007,08,29,09,28,19.20
2007,08,29,09,29,19.30
2007,08,29,09,30,19.50
2007,08,29,09,31,19.60
2007,08,29,09,32,19.70
2007,08,29,09,33,19.80
2007,08,29,09,34,19.80
2007,08,29,09,35,19.80
2007,08,29,09,36,19.90
2007,08,29,09,37,19.90
2007,08,29,09,38,19.90
2007,08,29,09,39,19.90
2007,08,29,09,40,20.00
2007,08,29,09,41,20.00
2007,08,29,09,42,20.10
2007,08,29,09,43,20.10
2007,08,29,09,44,20.20
2007,08,29,09,45,20.30
2007,08,29,09,46,20.40
2007,08,29,09,47,20.40
2007,08,29,09,48,20.50
2007,08,29,09,49,20.50
2007,08,29,09,50,20.60
2007,08,29,09,51,20.60
2007,08,29,09,52,20.60
2007,08,29,09,53,20.70
2007,08,29,09,54,20.70
2007,08,29,09,55,20.80
2007,08,29,09,56,20.80
2007,08,29,09,57,20.80
2007,08,29,09,58,20.90
2007,08,29,09,59,21.00
2007,08,29,10,00,21.00
2007,08,29,10,01,21.10
2007,08,29,10,02,21.10
2007,08,29,10,03,21.10
2007,08,29,10,04,21.20
2007,08,29,10,05,21.20
2007,08,29,10,06,21.20
2007,08,29,10,07,21.20
2007,08,29,10,08,21.20
2007,08,29,10,09,21.10
2007,08,29,10,10,21.10
2007,08,29,10,11,21.10
2007,08,29,10,12,21.10
2007,08,29,10,13,21.10
2007,08,29,10,14,21.10
2007,08,29,10,15,21.20
2007,08,29,10,16,21.20
2007,08,29,10,17,21.30
2007,08,29,10,18,21.30
2007,08,29,10,19,21.30
2007,08,29,10,20,21.40
2007,08,29,10,21,21.50
2007,08,29,10,22,21.50
2007,08,29,10,23,21.50
2007,08,29,10,24,21.50
2007,08,29,10,25,21.50
2007,08,29,10,26,21.50
2007,08,29,10,27,21.50
2007,08,29,10,28,21.60
2007,08,29,10,29,21.60
2007,08,29,10,30,21.60
2007,08,29,10,31,21.60
2007,08,29,10,32,21.60
2007,08,29,10,33,21.60
2007,08,29,10,34,21.60
2007,08,29,10,35,21.60
2007,08,29,10,36,21.70
2007,08,29,10,37,21.70
2007,08,29,10,38,21.80
2007,08,29,10,39,21.80
2007,08,29,10,40,21.90
2007,08,29,10,41,22.00
2007,08,29,10,42,22.10
2007,08,29,10,43,22.10
2007,08,29,10,44,22.10
2007,08,29,10,45,22.10
2007,08,29,10,46,22.00
2007,08,29,10,47,22.00
2007,08,29,10,48,22.00
2007,08,29,10,49,22.00
2007,08,29,10,50,22.10
2007,08,29,10,51,22.20
2007,08,29,10,52,22.20
2007,08,29,10,53,22.20
2007,08,29,10,54,22.30
2007,08,29,10,55,22.40
2007,08,29,10,56,22.40
2007,08,29,10,57,22.40
2007,08,29,10,58,22.40
2007,08,29,10,59,22.40
2007,08,29,11,00,22.40
2007,08,29,11,01,22.40
2007,08,29,11,02,22.40
2007,08,29,11,03,22.40
2007,08,29,11,04,22.50
2007,08,29,11,05,22.50
2007,08,29,11,06,22.60
2007,08,29,11,07,22.60
2007,08,29,11,08,22.70
2007,08,29,11,09,22.70
2007,08,29,11,10,22.70
2007,08,29,11,11,22.70
2007,08,29,11,12,22.70
2007,08,29,11,13,22.70
2007,08,29,11,14,22.70
2007,08,29,11,15,22.80
2007,08,29,11,16,22.80
2007,08,29,11,17,22.80
2007,08,29,11,18,22.80
2007,08,29,11,19,22.90
2007,08,29,11,20,22.90
2007,08,29,11,21,22.90
2007,08,29,11,22,22.90
2007,08,29,11,23,22.90
2007,08,29,11,24,22.90
2007,08,29,11,25,23.00
2007,08,29,11,26,23.00
2007,08,29,11,27,23.00
2007,08,29,11,28,23.10
2007,08,29,11,29,23.10
2007,08,29,11,30,23.20
2007,08,29,11,31,23.20
2007,08,29,11,32,23.20
2007,08,29,11,33,23.20
2007,08,29,11,34,23.20
2007,08,29,11,35,23.30
2007,08,29,11,36,23.40
2007,08,29,11,37,23.50
2007,08,29,11,38,23.60
2007,08,29,11,39,23.70
2007,08,29,11,40,23.80
2007,08,29,11,41,23.80
2007,08,29,11,42,23.80
2007,08,29,11,43,23.60
2007,08,29,11,44,23.60
2007,08,29,11,45,23.60
2007,08,29,11,46,23.60
2007,08,29,11,47,23.70
2007,08,29,11,48,23.70
2007,08,29,11,49,23.70
2007,08,29,11,50,23.60
2007,08,29,11,51,23.60
2007,08,29,11,52,23.60
2007,08,29,11,53,23.60
2007,08,29,11,54,23.60
2007,08,29,11,55,23.70
2007,08,29,11,56,23.80
2007,08,29,11,57,23.80
2007,08,29,11,58,23.80
2007,08,29,11,59,23.70
2007,08,29,12,00,23.70
2007,08,29,12,01,23.60
2007,08,29,12,02,23.40
2007,08,29,12,03,23.40
2007,08,29,12,04,23.40
2007,08,29,12,05,23.40
2007,08,29,12,06,23.50
2007,08,29,12,07,23.70
2007,08,29,12,08,23.80
2007,08,29,12,09,23.90
2007,08,29,12,10,24.10
2007,08,29,12,11,24.10
2007,08,29,12,12,24.10
2007,08,29,12,13,24.00
2007,08,29,12,14,24.00
2007,08,29,12,15,24.00
2007,08,29,12,16,24.00
2007,08,29,12,17,24.00
2007,08,29,12,18,24.00
2007,08,29,12,19,24.10
2007,08,29,12,20,24.20
2007,08,29,12,21,24.30
2007,08,29,12,22,24.40
2007,08,29,12,23,24.60
2007,08,29,12,24,24.70
2007,08,29,12,25,24.70
2007,08,29,12,26,24.70
2007,08,29,12,27,24.70
2007,08,29,12,28,24.70
2007,08,29,12,29,24.80
2007,08,29,12,30,25.00
2007,08,29,12,31,25.10
2007,08,29,12,32,25.30
2007,08,29,12,33,25.30
2007,08,29,12,34,25.30
2007,08,29,12,35,25.30
2007,08,29,12,36,25.20
2007,08,29,12,37,25.20
2007,08,29,12,38,25.20
2007,08,29,12,39,25.20
2007,08,29,12,40,25.20
2007,08,29,12,41,25.10
2007,08,29,12,42,25.10
2007,08,29,12,43,25.00
2007,08,29,12,44,25.10
2007,08,29,12,45,25.10
2007,08,29,12,46,25.20
2007,08,29,12,47,25.30
2007,08,29,12,48,25.30
2007,08,29,12,49,25.30
2007,08,29,12,50,25.40
2007,08,29,12,51,25.40
2007,08,29,12,52,25.50
2007,08,29,12,53,25.60
2007,08,29,12,54,25.70
2007,08,29,12,55,25.80
2007,08,29,12,56,25.90
2007,08,29,12,57,25.90
2007,08,29,12,58,25.90
2007,08,29,12,59,26.10
2007,08,29,13,00,26.20
2007,08,29,13,01,26.20
2007,08,29,13,02,26.20
2007,08,29,13,03,26.10
2007,08,29,13,04,26.00
2007,08,29,13,05,25.90
2007,08,29,13,06,25.90
2007,08,29,13,07,25.90
2007,08,29,13,08,26.00
2007,08,29,13,09,26.10
2007,08,29,13,10,26.10
2007,08,29,13,11,26.10
2007,08,29,13,12,26.10
2007,08,29,13,13,26.10
2007,08,29,13,14,26.00
2007,08,29,13,15,25.90
2007,08,29,13,16,25.90
2007,08,29,13,17,25.90
2007,08,29,13,18,25.90
2007,08,29,13,19,25.90
2007,08,29,13,20,25.90
2007,08,29,13,21,25.90
2007,08,29,13,22,25.90
2007,08,29,13,23,25.80
2007,08,29,13,24,25.80
2007,08,29,13,25,25.80
2007,08,29,13,26,25.80
2007,08,29,13,27,25.90
2007,08,29,13,28,25.90
2007,08,29,13,29,25.90
2007,08,29,13,30,25.80
2007,08,29,13,31,25.80
2007,08,29,13,32,25.70
2007,08,29,13,33,25.70
2007,08,29,13,34,25.70
2007,08,29,13,35,25.70
2007,08,29,13,36,25.70
2007,08,29,13,37,25.70
2007,08,29,13,38,25.60
2007,08,29,13,39,25.70
2007,08,29,13,40,25.70
2007,08,29,13,41,25.70
2007,08,29,13,42,25.80
2007,08,29,13,43,25.80
2007,08,29,13,44,25.90
2007,08,29,13,45,25.90
2007,08,29,13,46,25.90
2007,08,29,13,47,25.90
2007,08,29,13,48,25.90
2007,08,29,13,49,25.90
2007,08,29,13,50,26.00
2007,08,29,13,51,26.10
2007,08,29,13,52,26.20
2007,08,29,13,53,26.20
2007,08,29,13,54,26.30
2007,08,29,13,55,26.30
2007,08,29,13,56,26.40
2007,08,29,13,57,26.40
2007,08,29,13,58,26.40
2007,08,29,13,59,26.40
2007,08,29,14,00,26.50
2007,08,29,14,01,26.50
2007,08,29,14,02,26.60
2007,08,29,14,03,26.70
2007,08,29,14,04,26.70
2007,08,29,14,05,26.80
2007,08,29,14,06,26.80
2007,08,29,14,07,26.80
2007,08,29,14,08,26.80
2007,08,29,14,09,26.70
2007,08,29,14,10,26.70
2007,08,29,14,11,26.70
2007,08,29,14,12,26.70
2007,08,29,14,13,26.70
2007,08,29,14,14,26.60
2007,08,29,14,15,26.60
2007,08,29,14,16,26.60
2007,08,29,14,17,26.60
2007,08,29,14,18,26.50
2007,08,29,14,19,26.40
2007,08,29,14,20,26.40
2007,08,29,14,21,26.40
2007,08,29,14,22,26.40
2007,08,29,14,23,26.40
2007,08,29,14,24,26.50
2007,08,29,14,25,26.50
2007,08,29,14,26,26.50
2007,08,29,14,27,26.50
2007,08,29,14,28,26.50
2007,08,29,14,29,26.50
2007,08,29,14,30,26.50
2007,08,29,14,31,26.60
2007,08,29,14,32,26.70
2007,08,29,14,33,26.70
2007,08,29,14,34,26.60
2007,08,29,14,35,26.60
2007,08,29,14,36,26.50
2007,08,29,14,37,26.40
2007,08,29,14,38,26.40
2007,08,29,14,39,26.40
2007,08,29,14,40,26.40
2007,08,29,14,41,26.40
2007,08,29,14,42,26.40
2007,08,29,14,43,26.40
2007,08,29,14,44,26.40
2007,08,29,14,45,26.30
2007,08,29,14,46,26.30
2007,08,29,14,47,26.30
2007,08,29,14,48,26.20
2007,08,29,14,49,26.20
2007,08,29,14,50,26.10
2007,08,29,14,51,26.00
2007,08,29,14,52,25.90
2007,08,29,14,53,25.90
2007,08,29,14,54,25.90
2007,08,29,14,55,25.80
2007,08,29,14,56,25.80
2007,08,29,14,57,25.80
2007,08,29,14,58,25.80
2007,08,29,14,59,25.80
2007,08,29,15,00,25.80
2007,08,29,15,01,25.90
2007,08,29,15,02,25.90
2007,08,29,15,03,25.90
2007,08,29,15,04,25.90
2007,08,29,15,05,25.90
2007,08,29,15,06,26.00
2007,08,29,15,07,26.00
2007,08,29,15,08,26.00
2007,08,29,15,09,26.10
2007,08,29,15,10,26.00
2007,08,29,15,11,26.00
2007,08,29,15,12,26.00
2007,08,29,15,13,25.90
2007,08,29,15,14,25.90
2007,08,29,15,15,25.90
2007,08,29,15,16,25.90
2007,08,29,15,17,25.90
2007,08,29,15,18,25.90
2007,08,29,15,19,26.00
2007,08,29,15,20,26.00
2007,08,29,15,21,26.00
2007,08,29,15,22,25.90
2007,08,29,15,23,25.90
2007,08,29,15,24,25.90
2007,08,29,15,25,26.00
2007,08,29,15,26,26.10
2007,08,29,15,27,26.20
2007,08,29,15,28,26.20
2007,08,29,15,29,26.20
2007,08,29,15,30,26.20
2007,08,29,15,31,26.30
2007,08,29,15,32,26.30
2007,08,29,15,33,26.40
2007,08,29,15,34,26.40
2007,08,29,15,35,26.40
2007,08,29,15,36,26.40
2007,08,29,15,37,26.40
2007,08,29,15,38,26.40
2007,08,29,15,39,26.40
2007,08,29,15,40,26.50
2007,08,29,15,41,26.50
2007,08,29,15,42,26.60
2007,08,29,15,43,26.60
2007,08,29,15,44,26.60
2007,08,29,15,45,26.70
2007,08,29,15,46,26.70
2007,08,29,15,47,26.70
2007,08,29,15,48,26.70
2007,08,29,15,49,26.80
2007,08,29,15,50,26.80
2007,08,29,15,51,26.80
2007,08,29,15,52,26.80
2007,08,29,15,53,26.90
2007,08,29,15,54,26.90
2007,08,29,15,55,26.90
2007,08,29,15,56,27.00
2007,08,29,15,57,26.90
2007,08,29,15,58,26.90
2007,08,29,15,59,26.80
2007,08,29,16,00,26.80
2007,08,29,16,01,26.80
2007,08,29,16,02,26.80
2007,08,29,16,03,26.80
2007,08,29,16,04,26.80
2007,08,29,16,05,26.70
2007,08,29,16,06,26.70
2007,08,29,16,07,26.80
2007,08,29,16,08,26.80
2007,08,29,16,09,26.80
2007,08,29,16,10,26.80
2007,08,29,16,11,26.80
2007,08,29,16,12,26.80
2007,08,29,16,13,26.80
2007,08,29,16,14,26.90
2007,08,29,16,15,26.90
2007,08,29,16,16,26.90
2007,08,29,16,17,27.00
2007,08,29,16,18,27.10
2007,08,29,16,19,27.10
2007,08,29,16,20,27.20
2007,08,29,16,21,27.20
2007,08,29,16,22,27.20
2007,08,29,16,23,27.30
2007,08,29,16,24,27.30
2007,08,29,16,25,27.30
2007,08,29,16,26,27.30
2007,08,29,16,27,27.30
2007,08,29,16,28,27.30
2007,08,29,16,29,27.30
2007,08,29,16,30,27.30
2007,08,29,16,31,27.30
2007,08,29,16,32,27.20
2007,08,29,16,33,27.20
2007,08,29,16,34,27.20
2007,08,29,16,35,27.30
2007,08,29,16,36,27.30
2007,08,29,16,37,27.30
2007,08,29,16,38,27.40
2007,08,29,16,39,27.40
2007,08,29,16,40,27.50
2007,08,29,16,41,27.50
2007,08,29,16,42,27.40
2007,08,29,16,43,27.30
2007,08,29,16,44,27.00
2007,08,29,16,45,26.70
2007,08,29,16,46,26.70
2007,08,29,16,47,26.60
2007,08,29,16,48,26.60
2007,08,29,16,49,26.50
2007,08,29,16,50,26.40
2007,08,29,16,51,26.30
2007,08,29,16,52,26.30
2007,08,29,16,53,26.30
2007,08,29,16,54,26.20
2007,08,29,16,55,26.00
2007,08,29,16,56,25.90
2007,08,29,16,57,25.80
2007,08,29,16,58,25.70
2007,08,29,16,59,25.70
2007,08,29,17,00,25.60
2007,08,29,17,01,25.60
2007,08,29,17,02,25.60
2007,08,29,17,03,25.60
2007,08,29,17,04,25.60
2007,08,29,17,05,25.60
2007,08,29,17,06,25.80
2007,08,29,17,07,25.90
2007,08,29,17,08,25.90
2007,08,29,17,09,26.10
2007,08,29,17,10,26.10
2007,08,29,17,11,26.20
2007,08,29,17,12,26.30
2007,08,29,17,13,26.30
2007,08,29,17,14,26.30
2007,08,29,17,15,26.20
2007,08,29,17,16,26.20
2007,08,29,17,17,26.20
2007,08,29,17,18,26.20
2007,08,29,17,19,26.20